Torna al catalogo

COSMOS 2251 DEB

AttivoLEO
NORAD 37531·DEBRIS·🇷🇺 Russia

Lanciato Jun 16, 1993 da Plesetsk Cosmodrome

Loading…

Prossimi Passaggi (prossime 24 ore)

TLE

ObsoletoSource: Space-Track

Epoca: Sep 4, 2026, 23:10 UTC

1 37531U 93036BNL 26247.96557344  .00004264  00000-0  72715-3 0  9995
2 37531  74.0024 110.7720 0035521 130.8074 229.6187 14.68897115739559

Traccia COSMOS 2251 DEB in tempo reale con AllMySat

Download on the App Store